SCP
0 0 0 0 0 0 0 0 0 0 0 0 0 0 0 0 0 0 0 0 0 0 0 0 0 0 0 0 0 0 0 0 0 0 0 0 0 0
0 0 0 0 0 0 0 0 0 0 0 0 0 0 0 0 0 0 0 0 0 0 0 0 0 0 0 0 0 0 0 0 0 0 0 0 0 0
-0 0 0 0 0 0 0 0 0 0 0 0 0 0 0 0 0 0 0 0 0 0 0 0 0 0 0 0 0 0 0 0 0 0 0 0 0 0
0 -0 0 0 0 0 0 0 0 0 0 0 0 0 0 0 0 0 0 0 0 0 0 0 0 0 0 0 0 0 0 0 0 0 0 0 0 0
0 0 0 0 0 0 0 0 0 0 0 0 0 0 0 0 0 0 0 0 0 0 0 0 0 0 0 0 0 0 0 0 0 0 0 0 0 0
0 0 0 0 0 0 0 0 0 0 0 0 0 0 0 0 0 0 0 0 0 0 0 0 0 0 0 0 0 0 0 0 0 0 0 0 0 0
0 0 0 0 0 0 0 0 0 -0 0 0 0 0 0 -0 -0 -0 -0 0 0 0 0 0 0 0 0 0 0 0 0 0 0 0 0 0 0 0
0 0 0 0 0 0 0 0 0 -0 -0 0 0 0 0 0 0 0 0 -0 -0 -0 -0 -0 0 0 0 0 0 0 0 0 0 0 0 0 0 0
0 0 0 0 0 0 0 0 -0 0 0 0 0 0 0 0 0 0 0 0 -0 -0 0 0 0 0 0 0 0 0 0 0 0 0 0 0 0 0
0 0 0 0 0 0 0 0 0 0 -0 -0 -0 -0 -0 -0 0 0 0 0 0 -0 -0 0 -0 -0 0 0 0 0 0 0 0 0 0 0 -0 0
-0 -0 0 -0 0 0 0 0 0 -0 -0 -0 -0 -0 -0 -0 -0 0 0 0 0 0 -0 -0 -0 0 0 0 0 -0 -0 -0 0 0 0 -0 -0 -0
-0 0 -0 0 -0 0 -0 0 0 -0 -0 -0 0 -0 -0 -0 0 0 0 0 0 0 0 -0 -0 -0 0 0 -0 -0 0 -0 0 0 0 0 -0 0
-0 0 0 -0 -0 0 0 0 0 0 -0 -0 -0 -0 -0 -0 0 0 0 0 -0 -0 0 0 0 -0 -0 -0 0 0 -0 -0 0 0 -0 -0 -0 -0
-0 -0 -0 -0 0 0 0 0 0 0 -0 -0 -0 -0 -0 -0 -0 0 0 0 0 -0 -0 -0 0 0 -0 -0 0 -0 -0 -0 -0 -0 0 0 -0 0
-0 0 0 0 0 0 -0 -0 -0 0 0 0 -0 -0 -0 -0 -0 0 0 0 0 -0 -0 -0 -0 -0 0 0 0 0 -0 -0 0 0 0 -0 0 0
-0 -0 0 0 -0 0 -0 -0 0 0 0 0 0 0 0 0 0 0 0 0 0 -0 -0 -0 0 0 -0 0 0 0 0 -0 0 0 0 -0 0 0
0 0 0 0 0 -0 0 0 0 0 0 0 0 0 0 0 0 0 0 0 -0 -0 -0 0 -0 0 0 0 0 0 0 -0 0 0 0 0 0 0
0 0 -0 -0 -0 -0 -0 0 0 0 0 0 0 0 0 0 0 0 0 0 -0 -0 0 0 -0 -0 -0 0 -0 -0 0 0 0 0 0 0 0 0
0 0 0 0 0 0 -0 -0 -0 0 0 0 0 0 0 0 0 0 0 0 -0 -0 0 0 0 -0 -0 0 0 -0 0 0 0 0 0 0 0 0
0 0 0 0 0 0 0 0 -0 0 0 0 0 0 0 0 0 -0 -0 -0 -0 -0 0 0 0 -0 -0 -0 0 0 -0 0 0 0 0 0 0 0
0 0 0 0 0 0 0 0 -0 0 0 0 0 -0 -0 -0 -0 -0 -0 -0 -0 -0 -0 0 0 0 0 0 0 0 0 0 0 0 0 0 0 0
0 0 0 0 0 0 0 0 0 0 0 0 0 0 -0 -0 -0 -0 -0 -0 0 0 0 0 0 0 0 0 0 0 0 0 0 -0 0 0 0 0
0 0 0 0 0 0 0 0 0 0 0 0 0 0 0 -0 -0 -0 -0 0 0 -0 0 0 0 0 0 0 0 0 0 0 0 0 0 0 0 0
Wind_Speed_500mb
47 50 52 53 52 51 50 53 51 46 50 45 47 58 59 56 52 48 41 37 38 31 25 19 18 20 18 22 22 20 29 31 28 27 33 42 45 47
55 56 57 51 56 57 57 57 55 50 41 43 48 50 39 46 38 31 25 20 16 11 8 12 14 10 10 13 18 21 22 19 19 24 31 35 40 43
62 52 61 59 58 56 60 58 53 44 43 37 33 40 38 29 24 18 15 13 10 10 8 6 6 4 3 5 6 11 15 20 24 28 33 37 39 41
68 56 64 59 51 58 64 45 38 34 35 36 36 29 23 16 13 12 9 9 5 7 8 7 6 7 10 12 13 13 16 20 24 28 32 35 35 37
66 50 52 49 41 57 44 29 35 34 24 15 12 9 6 7 10 10 8 6 4 5 8 11 10 9 6 5 6 7 10 15 22 26 28 30 31 30
51 41 40 32 36 40 23 16 9 10 13 14 12 10 10 12 16 17 14 16 16 15 14 14 14 15 16 9 7 9 10 10 9 10 13 15 18 21
38 32 11 16 24 10 12 17 24 24 21 20 19 16 16 19 15 14 10 9 16 11 14 14 14 13 13 9 12 12 10 8 6 5 8 11 15 18
29 11 5 14 15 10 15 19 21 25 25 17 24 17 14 14 16 15 16 21 22 15 10 11 10 9 9 9 13 12 12 9 7 10 13 14 13 14
25 16 18 24 26 31 32 32 28 25 19 18 15 16 14 13 13 14 14 15 27 27 8 10 11 6 6 11 19 17 14 11 12 13 9 9 11 14
25 17 20 25 23 29 36 43 40 35 29 23 23 24 19 13 15 16 12 13 25 23 8 7 11 3 3 10 18 16 10 7 8 11 9 7 7 9
34 29 26 26 18 20 21 26 30 28 26 28 28 25 26 25 27 23 24 19 21 23 13 7 9 3 4 6 16 15 9 7 12 13 7 5 9 5
24 31 23 17 13 11 10 13 13 17 17 18 17 17 15 14 16 21 22 21 26 18 27 6 5 3 6 9 13 10 8 10 10 6 4 5 6 5
28 21 21 30 24 16 13 12 11 2 5 11 17 18 18 14 15 15 21 22 28 30 29 7 8 4 6 6 4 11 13 11 8 3 6 7 9 5
42 33 25 27 29 24 21 18 18 8 7 3 14 18 19 16 17 12 17 20 23 30 31 19 5 9 2 1 2 6 16 17 10 8 10 12 11 12
23 23 23 22 20 15 16 17 20 20 15 12 15 25 19 19 19 15 16 20 17 30 35 19 12 8 6 9 10 6 4 20 12 11 14 17 16 9
16 18 21 19 18 15 14 22 30 27 23 14 14 21 18 19 23 18 15 18 20 31 33 19 18 9 10 12 10 14 14 7 13 15 16 21 19 9
38 27 20 20 26 26 26 28 34 26 26 20 13 19 25 21 24 17 15 19 25 36 32 10 10 15 12 10 9 11 16 12 12 11 14 20 27 28
35 38 36 35 35 38 42 35 38 29 21 17 20 23 24 26 22 19 18 20 30 38 25 11 2 8 14 16 12 13 13 13 12 11 16 23 32 35
38 35 35 31 30 35 39 39 37 29 25 27 26 24 26 24 19 18 19 23 29 33 23 16 8 7 9 20 22 21 20 20 17 17 22 26 34 34
31 29 29 26 29 29 31 39 44 33 31 30 29 29 25 25 23 19 19 23 28 36 21 14 11 11 8 17 21 18 15 19 21 22 26 30 36 31
23 23 26 24 26 25 26 35 41 42 37 32 31 36 30 27 24 18 18 21 23 30 31 18 13 12 10 16 19 18 18 21 23 29 32 35 38 36
19 17 22 22 23 25 27 26 30 37 37 39 38 37 37 27 25 23 20 20 22 25 27 20 13 11 11 17 23 26 25 25 27 22 19 17 23 38
37 34 28 23 21 20 26 28 26 29 37 37 42 43 34 29 25 23 20 18 21 20 21 18 16 18 21 26 33 37 40 46 44 42 51 47 53 53
Wind_Direction_500mb
313 312 306 312 308 307 304 303 309 311 310 309 303 304 306 312 319 321 322 321 324 331 335 315 315 308 269 235 248 199 159 177 178 189 195 205 215 218
309 309 307 307 301 305 301 302 301 301 299 299 297 302 308 317 315 317 312 312 325 342 327 293 284 185 189 166 169 195 201 200 216 221 224 225 226 227
318 304 306 308 304 305 306 301 299 299 296 298 292 302 310 312 313 309 308 312 322 322 302 291 279 280 237 225 220 216 220 233 226 228 232 237 244 252
314 302 306 305 306 311 310 300 301 297 301 305 306 313 318 318 319 319 325 339 353 16 342 330 319 287 274 267 267 264 260 254 251 251 251 254 260 260
312 302 304 299 309 313 305 298 300 302 316 324 314 345 9 360 351 352 354 16 2 344 13 22 26 17 349 313 286 283 284 283 277 270 265 263 260 260
301 299 297 300 317 312 309 319 357 26 34 44 54 53 29 36 44 46 45 51 42 43 37 30 28 31 30 46 28 350 320 303 289 280 271 262 258 260
297 295 290 336 331 349 45 55 68 70 68 70 72 66 65 51 39 36 28 44 33 27 25 31 34 22 15 24 359 352 4 358 352 328 307 293 288 284
278 195 77 31 26 44 58 71 74 80 72 69 84 56 49 53 50 35 40 27 16 358 343 18 9 21 24 19 15 13 10 17 352 332 323 315 305 302
178 141 86 66 63 72 73 74 76 74 65 65 72 57 42 18 356 344 349 0 4 352 273 328 342 334 8 13 9 12 9 2 351 337 322 326 331 333
156 134 88 74 73 82 81 77 77 79 76 69 62 51 36 18 9 359 352 332 9 11 353 310 335 296 349 3 357 360 6 359 337 351 352 5 6 15
146 126 91 82 79 73 74 79 76 80 82 77 70 59 57 50 44 42 46 28 357 3 7 313 332 278 277 313 346 355 354 340 349 341 350 335 350 39
108 112 116 97 84 62 22 38 61 77 78 77 65 51 44 39 35 31 29 27 24 21 9 8 358 255 226 285 341 358 17 359 345 338 341 313 328 61
111 115 104 95 70 35 17 340 293 294 110 65 48 24 16 13 12 15 17 21 34 25 14 7 1 280 250 285 10 43 24 10 359 43 331 333 352 351
101 96 83 68 65 62 56 64 51 75 171 134 56 31 18 1 10 14 15 18 27 16 12 19 13 30 94 159 131 52 31 25 40 34 360 346 330 314
88 84 84 76 69 55 46 28 34 50 167 128 56 35 21 16 6 7 358 7 357 11 10 19 26 30 75 103 78 41 23 30 34 25 16 4 6 23
79 98 96 81 49 39 34 34 40 71 121 104 49 37 27 25 9 356 352 1 11 16 1 5 27 65 100 97 84 62 51 54 52 41 15 14 4 1
100 93 89 65 62 49 44 39 57 96 110 64 55 19 11 17 11 357 354 0 10 5 360 10 22 47 75 91 89 56 42 50 61 38 30 52 61 65
84 79 74 68 64 57 50 51 58 69 58 39 23 19 17 8 3 3 17 22 15 0 8 25 22 106 94 75 69 62 52 53 60 53 67 83 78 71
91 87 77 75 72 62 56 50 38 33 36 28 27 16 5 8 8 14 24 21 17 12 17 20 42 157 117 92 73 69 77 71 70 86 85 88 84 82
82 76 68 64 65 69 67 49 42 50 47 37 27 21 17 16 21 27 27 21 18 18 32 47 76 122 123 101 96 85 85 72 69 76 93 100 86 87
77 62 57 63 67 62 46 44 42 42 40 30 25 21 22 19 31 32 28 20 18 17 24 47 65 94 113 107 101 95 86 81 74 70 103 102 98 91
74 66 60 64 62 51 41 42 46 40 40 35 28 17 14 21 25 22 27 32 24 16 16 30 63 93 119 108 102 96 86 79 86 102 111 99 101 89
66 70 74 72 64 56 47 42 41 39 37 35 29 19 22 21 20 19 28 30 22 18 17 42 85 102 100 106 108 104 105 104 102 104 99 97 89 84
Wind_Speed_850mb
47 50 52 53 52 51 50 53 51 46 50 45 47 58 59 56 52 48 41 37 38 31 25 19 18 20 18 22 22 20 29 31 28 27 33 42 45 47
55 56 57 51 56 57 57 57 55 50 41 43 48 50 39 46 38 31 25 20 16 11 8 12 14 10 10 13 18 21 22 19 19 24 31 35 40 43
62 52 61 59 58 56 60 58 53 44 43 37 33 40 38 29 24 18 15 13 10 10 8 6 6 4 3 5 6 11 15 20 24 28 33 37 39 41
68 56 64 59 51 58 64 45 38 34 35 36 36 29 23 16 13 12 9 9 5 7 8 7 6 7 10 12 13 13 16 20 24 28 32 35 35 37
66 50 52 49 41 57 44 29 35 34 24 15 12 9 6 7 10 10 8 6 4 5 8 11 10 9 6 5 6 7 10 15 22 26 28 30 31 30
51 41 40 32 36 40 23 16 9 10 13 14 12 10 10 12 16 17 14 16 16 15 14 14 14 15 16 9 7 9 10 10 9 10 13 15 18 21
38 32 11 16 24 10 12 17 24 24 21 20 19 16 16 19 15 14 10 9 16 11 14 14 14 13 13 9 12 12 10 8 6 5 8 11 15 18
29 11 5 14 15 10 15 19 21 25 25 17 24 17 14 14 16 15 16 21 22 15 10 11 10 9 9 9 13 12 12 9 7 10 13 14 13 14
25 16 18 24 26 31 32 32 28 25 19 18 15 16 14 13 13 14 14 15 27 27 8 10 11 6 6 11 19 17 14 11 12 13 9 9 11 14
25 17 20 25 23 29 36 43 40 35 29 23 23 24 19 13 15 16 12 13 25 23 8 7 11 3 3 10 18 16 10 7 8 11 9 7 7 9
34 29 26 26 18 20 21 26 30 28 26 28 28 25 26 25 27 23 24 19 21 23 13 7 9 3 4 6 16 15 9 7 12 13 7 5 9 5
24 31 23 17 13 11 10 13 13 17 17 18 17 17 15 14 16 21 22 21 26 18 27 6 5 3 6 9 13 10 8 10 10 6 4 5 6 5
28 21 21 30 24 16 13 12 11 2 5 11 17 18 18 14 15 15 21 22 28 30 29 7 8 4 6 6 4 11 13 11 8 3 6 7 9 5
42 33 25 27 29 24 21 18 18 8 7 3 14 18 19 16 17 12 17 20 23 30 31 19 5 9 2 1 2 6 16 17 10 8 10 12 11 12
23 23 23 22 20 15 16 17 20 20 15 12 15 25 19 19 19 15 16 20 17 30 35 19 12 8 6 9 10 6 4 20 12 11 14 17 16 9
16 18 21 19 18 15 14 22 30 27 23 14 14 21 18 19 23 18 15 18 20 31 33 19 18 9 10 12 10 14 14 7 13 15 16 21 19 9
38 27 20 20 26 26 26 28 34 26 26 20 13 19 25 21 24 17 15 19 25 36 32 10 10 15 12 10 9 11 16 12 12 11 14 20 27 28
35 38 36 35 35 38 42 35 38 29 21 17 20 23 24 26 22 19 18 20 30 38 25 11 2 8 14 16 12 13 13 13 12 11 16 23 32 35
38 35 35 31 30 35 39 39 37 29 25 27 26 24 26 24 19 18 19 23 29 33 23 16 8 7 9 20 22 21 20 20 17 17 22 26 34 34
31 29 29 26 29 29 31 39 44 33 31 30 29 29 25 25 23 19 19 23 28 36 21 14 11 11 8 17 21 18 15 19 21 22 26 30 36 31
23 23 26 24 26 25 26 35 41 42 37 32 31 36 30 27 24 18 18 21 23 30 31 18 13 12 10 16 19 18 18 21 23 29 32 35 38 36
19 17 22 22 23 25 27 26 30 37 37 39 38 37 37 27 25 23 20 20 22 25 27 20 13 11 11 17 23 26 25 25 27 22 19 17 23 38
37 34 28 23 21 20 26 28 26 29 37 37 42 43 34 29 25 23 20 18 21 20 21 18 16 18 21 26 33 37 40 46 44 42 51 47 53 53
Wind_Direction_850mb
313 312 306 312 308 307 304 303 309 311 310 309 303 304 306 312 319 321 322 321 324 331 335 315 315 308 269 235 248 199 159 177 178 189 195 205 215 218
309 309 307 307 301 305 301 302 301 301 299 299 297 302 308 317 315 317 312 312 325 342 327 293 284 185 189 166 169 195 201 200 216 221 224 225 226 227
318 304 306 308 304 305 306 301 299 299 296 298 292 302 310 312 313 309 308 312 322 322 302 291 279 280 237 225 220 216 220 233 226 228 232 237 244 252
314 302 306 305 306 311 310 300 301 297 301 305 306 313 318 318 319 319 325 339 353 16 342 330 319 287 274 267 267 264 260 254 251 251 251 254 260 260
312 302 304 299 309 313 305 298 300 302 316 324 314 345 9 360 351 352 354 16 2 344 13 22 26 17 349 313 286 283 284 283 277 270 265 263 260 260
301 299 297 300 317 312 309 319 357 26 34 44 54 53 29 36 44 46 45 51 42 43 37 30 28 31 30 46 28 350 320 303 289 280 271 262 258 260
297 295 290 336 331 349 45 55 68 70 68 70 72 66 65 51 39 36 28 44 33 27 25 31 34 22 15 24 359 352 4 358 352 328 307 293 288 284
278 195 77 31 26 44 58 71 74 80 72 69 84 56 49 53 50 35 40 27 16 358 343 18 9 21 24 19 15 13 10 17 352 332 323 315 305 302
178 141 86 66 63 72 73 74 76 74 65 65 72 57 42 18 356 344 349 0 4 352 273 328 342 334 8 13 9 12 9 2 351 337 322 326 331 333
156 134 88 74 73 82 81 77 77 79 76 69 62 51 36 18 9 359 352 332 9 11 353 310 335 296 349 3 357 360 6 359 337 351 352 5 6 15
146 126 91 82 79 73 74 79 76 80 82 77 70 59 57 50 44 42 46 28 357 3 7 313 332 278 277 313 346 355 354 340 349 341 350 335 350 39
108 112 116 97 84 62 22 38 61 77 78 77 65 51 44 39 35 31 29 27 24 21 9 8 358 255 226 285 341 358 17 359 345 338 341 313 328 61
111 115 104 95 70 35 17 340 293 294 110 65 48 24 16 13 12 15 17 21 34 25 14 7 1 280 250 285 10 43 24 10 359 43 331 333 352 351
101 96 83 68 65 62 56 64 51 75 171 134 56 31 18 1 10 14 15 18 27 16 12 19 13 30 94 159 131 52 31 25 40 34 360 346 330 314
88 84 84 76 69 55 46 28 34 50 167 128 56 35 21 16 6 7 358 7 357 11 10 19 26 30 75 103 78 41 23 30 34 25 16 4 6 23
79 98 96 81 49 39 34 34 40 71 121 104 49 37 27 25 9 356 352 1 11 16 1 5 27 65 100 97 84 62 51 54 52 41 15 14 4 1
100 93 89 65 62 49 44 39 57 96 110 64 55 19 11 17 11 357 354 0 10 5 360 10 22 47 75 91 89 56 42 50 61 38 30 52 61 65
84 79 74 68 64 57 50 51 58 69 58 39 23 19 17 8 3 3 17 22 15 0 8 25 22 106 94 75 69 62 52 53 60 53 67 83 78 71
91 87 77 75 72 62 56 50 38 33 36 28 27 16 5 8 8 14 24 21 17 12 17 20 42 157 117 92 73 69 77 71 70 86 85 88 84 82
82 76 68 64 65 69 67 49 42 50 47 37 27 21 17 16 21 27 27 21 18 18 32 47 76 122 123 101 96 85 85 72 69 76 93 100 86 87
77 62 57 63 67 62 46 44 42 42 40 30 25 21 22 19 31 32 28 20 18 17 24 47 65 94 113 107 101 95 86 81 74 70 103 102 98 91
74 66 60 64 62 51 41 42 46 40 40 35 28 17 14 21 25 22 27 32 24 16 16 30 63 93 119 108 102 96 86 79 86 102 111 99 101 89
66 70 74 72 64 56 47 42 41 39 37 35 29 19 22 21 20 19 28 30 22 18 17 42 85 102 100 106 108 104 105 104 102 104 99 97 89 84